Time,TemperatureF,DewpointF,PressureIn,WindDirection,WindDirectionDegrees,WindSpeedMPH,WindSpeedGustMPH,Humidity,HourlyPrecipIn,Conditions,Clouds,dailyrainin,SolarRadiationWatts/m^2,SoftwareType,DateUTC
2013-02-20 00:01:00,33.8,32.5,29.85,SW,221,2.7,6.9,95,0.01,RA,,0.00,0.0,WeatherDisplay:10.37,2013-02-19 23:01:00,
2013-02-20 00:06:00,33.9,32.6,29.85,SW,225,4.9,8.0,95,0.01,RA,,0.00,0.0,WeatherDisplay:10.37,2013-02-19 23:06:00,
2013-02-20 00:11:00,33.9,32.6,29.85,WSW,237,3.5,6.9,95,0.01,BKN,,0.00,0.0,WeatherDisplay:10.37,2013-02-19 23:11:00,
2013-02-20 00:16:00,33.9,32.6,29.85,SW,229,3.5,6.0,95,0.00,BKN,,0.00,0.0,WeatherDisplay:10.37,2013-02-19 23:16:00,
2013-02-20 00:21:00,33.9,32.6,29.85,WSW,254,4.1,6.0,95,0.00,BKN,,0.00,0.0,WeatherDisplay:10.37,2013-02-19 23:21:00,
2013-02-20 00:26:00,33.9,32.6,29.85,WSW,237,4.2,7.0,95,0.00,BKN,,0.00,0.0,WeatherDisplay:10.37,2013-02-19 23:26:00,
2013-02-20 00:31:00,33.9,32.6,29.85,WSW,254,3.5,5.0,95,0.00,BKN,,0.00,0.0,WeatherDisplay:10.37,2013-02-19 23:31:00,
2013-02-20 00:36:00,33.9,32.6,29.85,WSW,237,2.3,4.0,95,0.00,BKN,,0.00,0.0,WeatherDisplay:10.37,2013-02-19 23:36:00,
2013-02-20 00:41:00,33.9,32.6,29.85,West,263,1.4,6.9,95,0.00,BKN,,0.00,0.0,WeatherDisplay:10.37,2013-02-19 23:41:00,
2013-02-20 00:46:00,33.9,32.6,29.85,WSW,245,3.4,6.0,95,0.00,BKN,,0.00,0.0,WeatherDisplay:10.37,2013-02-19 23:46:00,
2013-02-20 00:51:00,33.9,32.6,29.85,WSW,252,3.6,6.0,95,0.00,BKN,,0.00,0.0,WeatherDisplay:10.37,2013-02-19 23:51:00,
2013-02-20 00:56:00,33.9,32.6,29.85,West,263,3.6,5.8,95,0.00,BKN,,0.00,0.0,WeatherDisplay:10.37,2013-02-19 23:56:00,
2013-02-20 01:01:00,33.9,32.6,29.85,WNW,284,3.7,6.0,95,0.00,BKN,,0.00,0.0,WeatherDisplay:10.37,2013-02-20 00:01:00,
2013-02-20 01:06:00,33.9,32.6,29.85,West,260,3.1,5.0,95,0.00,BKN,,0.00,0.0,WeatherDisplay:10.37,2013-02-20 00:06:00,
2013-02-20 01:11:00,33.9,32.6,29.85,WSW,251,2.9,4.6,95,0.00,BKN,,0.00,0.0,WeatherDisplay:10.37,2013-02-20 00:11:00,
2013-02-20 01:16:00,34.0,32.7,29.85,WSW,257,3.5,6.0,95,0.00,BKN,,0.00,0.0,WeatherDisplay:10.37,2013-02-20 00:16:00,
2013-02-20 01:21:00,34.0,32.7,29.85,WNW,291,3.7,5.8,95,0.00,BKN,,0.00,0.0,WeatherDisplay:10.37,2013-02-20 00:21:00,
2013-02-20 01:26:00,34.0,32.7,29.85,West,270,3.7,6.0,95,0.00,BKN,,0.00,0.0,WeatherDisplay:10.37,2013-02-20 00:26:00,
2013-02-20 01:31:00,34.0,32.7,29.85,West,260,4.4,8.0,95,0.00,BKN,,0.00,0.0,WeatherDisplay:10.37,2013-02-20 00:31:00,
2013-02-20 01:36:00,34.1,32.8,29.85,WSW,246,4.3,7.0,95,0.00,BKN,,0.00,0.0,WeatherDisplay:10.37,2013-02-20 00:36:00,
2013-02-20 01:41:00,34.1,32.8,29.85,WSW,239,1.2,3.5,95,0.00,BKN,,0.00,0.0,WeatherDisplay:10.37,2013-02-20 00:41:00,
2013-02-20 01:46:00,34.1,32.8,29.85,West,271,1.9,4.0,95,0.00,BKN,,0.00,0.0,WeatherDisplay:10.37,2013-02-20 00:46:00,
2013-02-20 01:51:00,34.1,32.8,29.85,WNW,292,2.9,4.0,95,0.00,BKN,,0.00,0.0,WeatherDisplay:10.37,2013-02-20 00:51:00,
2013-02-20 01:56:00,34.2,32.9,29.85,West,269,1.6,5.0,95,0.00,BKN,,0.00,0.0,WeatherDisplay:10.37,2013-02-20 00:56:00,
2013-02-20 02:01:00,34.2,32.9,29.85,West,265,4.9,6.9,95,0.00,BKN,,0.00,0.0,WeatherDisplay:10.37,2013-02-20 01:01:00,
2013-02-20 02:06:00,34.2,32.9,29.85,WSW,257,2.6,6.0,95,0.00,BKN,,0.00,0.0,WeatherDisplay:10.37,2013-02-20 01:06:00,
2013-02-20 02:11:00,34.2,32.9,29.85,WSW,238,2.7,5.8,95,0.00,BKN,,0.00,0.0,WeatherDisplay:10.37,2013-02-20 01:11:00,
2013-02-20 02:16:00,34.3,33.0,29.85,WSW,240,2.9,4.0,95,0.00,BKN,,0.00,0.0,WeatherDisplay:10.37,2013-02-20 01:16:00,
2013-02-20 02:21:00,34.3,33.0,29.84,WSW,249,3.2,4.6,95,0.00,BKN,,0.00,0.0,WeatherDisplay:10.37,2013-02-20 01:21:00,
2013-02-20 02:26:00,34.2,32.9,29.84,WSW,238,1.7,5.8,95,0.00,BKN,,0.00,0.0,WeatherDisplay:10.37,2013-02-20 01:26:00,
2013-02-20 02:31:00,34.2,32.9,29.84,SW,236,4.0,5.0,95,0.00,BKN,,0.00,0.0,WeatherDisplay:10.37,2013-02-20 01:31:00,
2013-02-20 02:36:00,34.2,32.7,29.85,WSW,248,3.2,6.9,94,0.00,BKN,,0.00,0.0,WeatherDisplay:10.37,2013-02-20 01:36:00,
2013-02-20 02:41:00,34.2,32.7,29.85,SW,234,2.6,4.0,94,0.00,BKN,,0.00,0.0,WeatherDisplay:10.37,2013-02-20 01:41:00,
2013-02-20 02:46:00,34.2,32.7,29.85,WSW,252,4.4,6.0,94,0.00,BKN,,0.00,0.0,WeatherDisplay:10.37,2013-02-20 01:46:00,
2013-02-20 02:51:00,34.2,32.7,29.85,West,261,3.1,4.6,94,0.00,BKN,,0.00,0.0,WeatherDisplay:10.37,2013-02-20 01:51:00,
2013-02-20 02:56:00,34.2,32.9,29.85,WSW,240,2.9,5.0,95,0.00,BKN,,0.00,0.0,WeatherDisplay:10.37,2013-02-20 01:56:00,
2013-02-20 03:01:00,34.2,32.9,29.85,SW,222,1.9,3.5,95,0.00,BKN,,0.00,0.0,WeatherDisplay:10.37,2013-02-20 02:01:00,
2013-02-20 03:06:00,34.2,32.7,29.85,West,259,0.6,3.5,94,0.00,BKN,,0.00,0.0,WeatherDisplay:10.37,2013-02-20 02:06:00,
2013-02-20 03:11:00,34.2,32.7,29.85,WSW,254,1.7,3.5,94,0.00,BKN,,0.00,0.0,WeatherDisplay:10.37,2013-02-20 02:11:00,
2013-02-20 03:16:00,34.2,32.7,29.85,West,265,1.2,3.5,94,0.00,BKN,,0.00,0.0,WeatherDisplay:10.37,2013-02-20 02:16:00,
2013-02-20 03:21:00,34.2,32.7,29.85,SW,224,2.7,6.0,94,0.00,BKN,,0.00,0.0,WeatherDisplay:10.37,2013-02-20 02:21:00,
2013-02-20 03:26:00,34.1,32.6,29.85,WSW,244,0.3,3.5,94,0.00,BKN,,0.00,0.0,WeatherDisplay:10.37,2013-02-20 02:26:00,
2013-02-20 03:31:00,34.1,32.6,29.85,WSW,255,1.9,3.5,94,0.00,BKN,,0.00,0.0,WeatherDisplay:10.37,2013-02-20 02:31:00,
2013-02-20 03:36:00,34.1,32.6,29.85,West,269,0.6,2.3,94,0.00,BKN,,0.00,0.0,WeatherDisplay:10.37,2013-02-20 02:36:00,
2013-02-20 03:41:00,34.1,32.6,29.86,West,269,1.0,2.3,94,0.00,BKN,,0.00,0.0,WeatherDisplay:10.37,2013-02-20 02:41:00,
2013-02-20 03:46:00,34.1,32.6,29.86,North,360,0.8,3.0,94,0.00,BKN,,0.00,0.0,WeatherDisplay:10.37,2013-02-20 02:46:00,
2013-02-20 03:51:00,34.0,32.5,29.86,WNW,293,0.0,2.3,94,0.00,BKN,,0.00,0.0,WeatherDisplay:10.37,2013-02-20 02:51:00,
2013-02-20 03:56:00,34.0,32.5,29.86,North,360,0.8,2.3,94,0.00,BKN,,0.00,0.0,WeatherDisplay:10.37,2013-02-20 02:56:00,
2013-02-20 04:01:00,34.0,32.5,29.86,WNW,293,0.1,1.1,94,0.00,BKN,,0.00,0.0,WeatherDisplay:10.37,2013-02-20 03:01:00,
2013-02-20 04:06:00,34.0,32.5,29.86,WNW,295,0.3,2.0,94,0.00,BKN,,0.00,0.0,WeatherDisplay:10.37,2013-02-20 03:06:00,
2013-02-20 04:11:00,34.0,32.5,29.86,WNW,286,1.3,3.5,94,0.00,BKN,,0.00,0.0,WeatherDisplay:10.37,2013-02-20 03:11:00,
2013-02-20 04:16:00,34.0,32.5,29.87,WNW,296,2.1,3.5,94,0.00,BKN,,0.00,0.0,WeatherDisplay:10.37,2013-02-20 03:16:00,
2013-02-20 04:21:00,34.0,32.5,29.87,WNW,286,2.4,4.0,94,0.00,BKN,,0.00,0.0,WeatherDisplay:10.37,2013-02-20 03:21:00,
2013-02-20 04:26:00,33.9,32.4,29.87,WNW,286,1.5,3.5,94,0.00,BKN,,0.00,0.0,WeatherDisplay:10.37,2013-02-20 03:26:00,
2013-02-20 04:31:00,33.9,32.4,29.88,West,275,1.4,4.6,94,0.00,BKN,,0.00,0.0,WeatherDisplay:10.37,2013-02-20 03:31:00,
2013-02-20 04:36:00,33.8,32.3,29.88,WNW,284,2.7,4.6,94,0.00,BKN,,0.00,0.0,WeatherDisplay:10.37,2013-02-20 03:36:00,
2013-02-20 04:41:00,33.8,32.3,29.88,North,360,3.1,4.0,94,0.00,BKN,,0.00,0.0,WeatherDisplay:10.37,2013-02-20 03:41:00,
2013-02-20 04:46:00,33.8,32.3,29.88,WNW,293,2.8,6.0,94,0.00,BKN,,0.00,0.0,WeatherDisplay:10.37,2013-02-20 03:46:00,
2013-02-20 04:51:00,33.7,32.2,29.88,WNW,287,3.1,4.6,94,0.00,BKN,,0.00,0.0,WeatherDisplay:10.37,2013-02-20 03:51:00,
2013-02-20 04:56:00,33.7,31.9,29.88,WNW,292,3.6,5.8,93,0.00,BKN,,0.00,0.0,WeatherDisplay:10.37,2013-02-20 03:56:00,
2013-02-20 05:01:00,33.7,31.9,29.88,West,272,4.5,8.0,93,0.00,BKN,,0.00,0.0,WeatherDisplay:10.37,2013-02-20 04:01:00,
2013-02-20 05:06:00,33.7,31.9,29.88,West,274,4.0,8.1,93,0.00,BKN,,0.00,0.0,WeatherDisplay:10.37,2013-02-20 04:06:00,
2013-02-20 05:11:00,33.7,31.9,29.88,West,269,2.7,5.0,93,0.00,BKN,,0.00,0.0,WeatherDisplay:10.37,2013-02-20 04:11:00,
2013-02-20 05:16:00,33.6,31.8,29.88,WNW,288,1.2,3.5,93,0.00,BKN,,0.00,0.0,WeatherDisplay:10.37,2013-02-20 04:16:00,
2013-02-20 05:21:00,33.6,31.8,29.88,WNW,298,3.8,6.0,93,0.00,BKN,,0.00,0.0,WeatherDisplay:10.37,2013-02-20 04:21:00,
2013-02-20 05:26:00,33.6,31.8,29.88,WNW,299,0.2,3.5,93,0.00,BKN,,0.00,0.0,WeatherDisplay:10.37,2013-02-20 04:26:00,
2013-02-20 05:31:00,33.6,31.8,29.88,WNW,292,0.0,3.5,93,0.00,BKN,,0.00,0.0,WeatherDisplay:10.37,2013-02-20 04:31:00,
2013-02-20 05:36:00,33.6,31.8,29.88,NNW,343,1.3,2.3,93,0.00,BKN,,0.00,0.0,WeatherDisplay:10.37,2013-02-20 04:36:00,
2013-02-20 05:41:00,33.6,31.5,29.87,NNW,343,0.1,2.3,92,0.00,BKN,,0.00,0.0,WeatherDisplay:10.37,2013-02-20 04:41:00,
2013-02-20 05:46:00,33.5,31.4,29.87,NNW,343,0.0,0.0,92,0.00,BKN,,0.00,0.0,WeatherDisplay:10.37,2013-02-20 04:46:00,
2013-02-20 05:51:00,33.3,31.2,29.87,NNW,343,0.0,0.0,92,0.00,BKN,,0.00,0.0,WeatherDisplay:10.37,2013-02-20 04:51:00,
2013-02-20 05:56:00,33.1,31.0,29.88,WSW,248,3.6,5.0,92,0.00,BKN,,0.00,0.0,WeatherDisplay:10.37,2013-02-20 04:56:00,
2013-02-20 06:00:00,33.0,30.9,29.88,West,261,1.0,6.0,92,0.00,BKN,,0.00,0.0,WeatherDisplay:10.37,2013-02-20 05:00:00,
2013-02-20 06:01:00,32.9,30.8,29.88,West,260,3.2,5.8,92,0.00,BKN,,0.00,0.0,WeatherDisplay:10.37,2013-02-20 05:01:00,
2013-02-20 06:02:00,32.9,30.8,29.88,WSW,247,2.2,4.6,92,0.00,BKN,,0.00,0.0,WeatherDisplay:10.37,2013-02-20 05:02:00,
2013-02-20 06:07:00,32.8,30.7,29.88,WSW,249,2.5,5.8,92,0.00,BKN,,0.00,0.0,WeatherDisplay:10.37,2013-02-20 05:07:00,
2013-02-20 06:12:00,32.7,30.6,29.88,WSW,258,2.1,5.0,92,0.00,BKN,,0.00,0.0,WeatherDisplay:10.37,2013-02-20 05:12:00,
2013-02-20 06:17:00,32.7,30.6,29.89,WSW,247,3.3,7.0,92,0.00,BKN,,0.00,0.0,WeatherDisplay:10.37,2013-02-20 05:17:00,
2013-02-20 06:22:00,32.6,30.5,29.89,SW,221,3.4,5.0,92,0.00,BKN,,0.00,0.0,WeatherDisplay:10.37,2013-02-20 05:22:00,
2013-02-20 06:27:00,32.6,30.5,29.89,WSW,238,3.5,5.0,92,0.00,BKN,,0.00,0.0,WeatherDisplay:10.37,2013-02-20 05:27:00,
2013-02-20 06:32:00,32.5,30.4,29.89,SW,221,2.5,4.6,92,0.00,BKN,,0.00,0.0,WeatherDisplay:10.37,2013-02-20 05:32:00,
2013-02-20 06:37:00,32.4,30.3,29.89,SW,234,2.8,4.6,92,0.00,BKN,,0.00,0.0,WeatherDisplay:10.37,2013-02-20 05:37:00,
2013-02-20 06:42:00,32.3,30.2,29.89,WSW,254,3.3,4.6,92,0.00,BKN,,0.00,0.0,WeatherDisplay:10.37,2013-02-20 05:42:00,
2013-02-20 06:47:00,32.1,30.0,29.90,West,270,4.1,7.0,92,0.00,BKN,,0.00,5.0,WeatherDisplay:10.37,2013-02-20 05:47:00,
2013-02-20 06:52:00,31.9,29.8,29.90,WNW,286,2.8,5.0,92,0.00,BKN,,0.00,7.0,WeatherDisplay:10.37,2013-02-20 05:52:00,
2013-02-20 06:57:00,31.8,29.7,29.90,WSW,254,4.0,8.0,92,0.00,BKN,,0.00,12.0,WeatherDisplay:10.37,2013-02-20 05:57:00,
2013-02-20 07:02:00,31.7,29.6,29.90,WSW,257,4.8,6.0,92,0.00,BKN,,0.00,14.0,WeatherDisplay:10.37,2013-02-20 06:02:00,
2013-02-20 07:07:00,31.6,29.5,29.91,West,275,0.1,3.5,92,0.00,BKN,,0.00,19.0,WeatherDisplay:10.37,2013-02-20 06:07:00,
2013-02-20 07:12:00,31.5,29.4,29.91,WSW,249,3.2,5.0,92,0.00,BKN,,0.00,19.0,WeatherDisplay:10.37,2013-02-20 06:12:00,
2013-02-20 07:17:00,31.5,29.4,29.91,WNW,286,3.8,6.0,92,0.00,BKN,,0.00,35.0,WeatherDisplay:10.37,2013-02-20 06:17:00,
2013-02-20 07:22:00,31.5,29.4,29.91,WSW,248,3.4,7.0,92,0.00,BKN,,0.00,44.0,WeatherDisplay:10.37,2013-02-20 06:22:00,
2013-02-20 07:27:00,31.5,29.4,29.91,West,269,5.2,8.1,92,0.00,BKN,,0.00,62.0,WeatherDisplay:10.37,2013-02-20 06:27:00,
2013-02-20 07:32:00,31.6,29.5,29.91,West,281,3.8,6.9,92,0.00,BKN,,0.00,74.0,WeatherDisplay:10.37,2013-02-20 06:32:00,
2013-02-20 07:37:00,31.7,29.6,29.92,WSW,250,3.9,6.9,92,0.00,BKN,,0.00,86.0,WeatherDisplay:10.37,2013-02-20 06:37:00,
2013-02-20 07:42:00,31.9,29.6,29.92,WSW,244,3.9,9.2,91,0.00,CLR,,0.00,95.0,WeatherDisplay:10.37,2013-02-20 06:42:00,
2013-02-20 07:47:00,32.1,29.8,29.92,WSW,246,4.2,6.9,91,0.00,CLR,,0.00,104.0,WeatherDisplay:10.37,2013-02-20 06:47:00,
2013-02-20 07:52:00,32.4,29.8,29.92,West,266,2.5,5.8,90,0.00,CLR,,0.00,111.0,WeatherDisplay:10.37,2013-02-20 06:52:00,
2013-02-20 07:57:00,32.6,30.0,29.92,West,271,6.0,9.2,90,0.00,CLR,,0.00,116.0,WeatherDisplay:10.37,2013-02-20 06:57:00,
2013-02-20 08:02:00,32.7,29.8,29.92,West,269,5.6,12.0,89,0.00,CLR,,0.00,139.0,WeatherDisplay:10.37,2013-02-20 07:02:00,
2013-02-20 08:07:00,32.9,30.0,29.92,WNW,282,2.5,8.1,89,0.00,CLR,,0.00,146.0,WeatherDisplay:10.37,2013-02-20 07:07:00,
2013-02-20 08:12:00,33.1,29.9,29.92,West,281,4.3,8.0,88,0.00,CLR,,0.00,158.0,WeatherDisplay:10.37,2013-02-20 07:12:00,
2013-02-20 08:17:00,33.4,29.9,29.92,WNW,285,6.4,10.4,87,0.00,CLR,,0.00,176.0,WeatherDisplay:10.37,2013-02-20 07:17:00,
2013-02-20 08:22:00,33.6,29.9,29.92,West,281,4.2,10.4,86,0.00,CLR,,0.00,185.0,WeatherDisplay:10.37,2013-02-20 07:22:00,
2013-02-20 08:27:00,33.9,29.9,29.92,WSW,248,5.8,9.2,85,0.00,CLR,,0.00,195.0,WeatherDisplay:10.37,2013-02-20 07:27:00,
2013-02-20 08:32:00,34.2,30.2,29.93,WSW,248,3.3,6.9,85,0.00,CLR,,0.00,221.0,WeatherDisplay:10.37,2013-02-20 07:32:00,
2013-02-20 08:37:00,34.5,29.9,29.93,West,281,6.3,10.4,83,0.00,CLR,,0.00,211.0,WeatherDisplay:10.37,2013-02-20 07:37:00,
2013-02-20 08:42:00,34.7,30.1,29.93,WSW,238,6.3,8.1,83,0.00,CLR,,0.00,130.0,WeatherDisplay:10.37,2013-02-20 07:42:00,
2013-02-20 08:47:00,34.7,30.1,29.93,WSW,256,5.8,9.2,83,0.00,FEW,,0.00,146.0,WeatherDisplay:10.37,2013-02-20 07:47:00,
2013-02-20 08:52:00,34.7,30.1,29.93,WNW,283,5.0,8.1,83,0.00,FEW,,0.00,113.0,WeatherDisplay:10.37,2013-02-20 07:52:00,
2013-02-20 08:57:00,34.6,30.0,29.93,West,273,7.3,16.0,83,0.00,FEW,,0.00,84.0,WeatherDisplay:10.37,2013-02-20 07:57:00,
2013-02-20 09:05:00,34.4,29.8,29.93,West,268,6.0,12.0,83,0.00,SCT,,0.00,218.0,WeatherDisplay:10.37,2013-02-20 08:05:00,
2013-02-20 09:10:00,34.5,29.9,29.94,West,274,2.0,9.0,83,0.00,SCT,,0.00,323.0,WeatherDisplay:10.37,2013-02-20 08:10:00,
2013-02-20 09:15:00,34.7,30.4,29.94,WSW,248,5.2,7.0,84,0.00,FEW,,0.00,111.0,WeatherDisplay:10.37,2013-02-20 08:15:00,
2013-02-20 09:20:00,34.9,30.3,29.94,West,278,4.4,9.2,83,0.00,CLR,,0.00,339.0,WeatherDisplay:10.37,2013-02-20 08:20:00,
2013-02-20 09:25:00,35.0,30.1,29.94,NW,305,4.8,8.1,82,0.00,FEW,,0.00,116.0,WeatherDisplay:10.37,2013-02-20 08:25:00,
2013-02-20 09:30:00,34.9,30.0,29.94,NW,313,5.6,10.4,82,0.00,SCT,,0.00,128.0,WeatherDisplay:10.37,2013-02-20 08:30:00,
2013-02-20 09:35:00,34.8,29.9,29.94,West,263,5.6,11.5,82,0.00,BKN,,0.00,69.0,WeatherDisplay:10.37,2013-02-20 08:35:00,
2013-02-20 09:40:00,34.7,29.8,29.95,WNW,289,1.2,8.1,82,0.00,BKN,,0.00,84.0,WeatherDisplay:10.37,2013-02-20 08:40:00,
2013-02-20 09:45:00,34.6,29.7,29.95,West,278,4.3,13.8,82,0.00,BKN,,0.00,88.0,WeatherDisplay:10.37,2013-02-20 08:45:00,
2013-02-20 09:50:00,34.5,29.6,29.95,WNW,295,3.7,8.0,82,0.00,BKN,,0.00,95.0,WeatherDisplay:10.37,2013-02-20 08:50:00,
2013-02-20 09:55:00,34.4,29.8,29.96,NNW,336,3.7,7.0,83,0.00,BKN,,0.00,76.0,WeatherDisplay:10.37,2013-02-20 08:55:00,
2013-02-20 10:00:00,34.3,29.7,29.95,North,351,3.0,8.1,83,0.00,BKN,,0.00,72.0,WeatherDisplay:10.37,2013-02-20 09:00:00,
2013-02-20 10:05:00,34.2,29.6,29.96,NNW,329,5.8,8.1,83,0.00,BKN,,0.00,81.0,WeatherDisplay:10.37,2013-02-20 09:05:00,
2013-02-20 10:10:00,34.1,29.5,29.96,NW,317,4.4,11.0,83,0.00,BKN,,0.00,142.0,WeatherDisplay:10.37,2013-02-20 09:10:00,
2013-02-20 10:15:00,34.2,29.6,29.96,NW,324,5.0,8.1,83,0.00,BKN,,0.00,134.0,WeatherDisplay:10.37,2013-02-20 09:15:00,
2013-02-20 10:20:00,34.3,29.4,29.96,WNW,283,4.9,9.2,82,0.00,BKN,,0.00,128.0,WeatherDisplay:10.37,2013-02-20 09:20:00,
2013-02-20 10:25:00,34.3,29.4,29.96,North,355,6.8,11.5,82,0.00,BKN,,0.00,123.0,WeatherDisplay:10.37,2013-02-20 09:25:00,
2013-02-20 10:30:00,34.4,29.2,29.97,NW,318,7.4,11.5,81,0.00,BKN,,0.00,202.0,WeatherDisplay:10.37,2013-02-20 09:30:00,
2013-02-20 10:35:00,34.5,29.3,29.97,WNW,294,6.1,11.0,81,0.00,SCT,,0.00,185.0,WeatherDisplay:10.37,2013-02-20 09:35:00,
2013-02-20 10:40:00,34.7,29.5,29.96,WNW,295,5.6,11.5,81,0.00,SCT,,0.00,214.0,WeatherDisplay:10.37,2013-02-20 09:40:00,
2013-02-20 10:45:00,35.1,29.6,29.96,WNW,299,5.6,11.5,80,0.00,FEW,,0.00,343.0,WeatherDisplay:10.37,2013-02-20 09:45:00,
2013-02-20 10:50:00,35.6,30.0,29.96,West,267,4.8,9.0,80,0.00,CLR,,0.00,550.0,WeatherDisplay:10.37,2013-02-20 09:50:00,
2013-02-20 10:55:00,36.1,29.9,29.96,NW,324,5.3,9.2,78,0.00,CLR,,0.00,283.0,WeatherDisplay:10.37,2013-02-20 09:55:00,
2013-02-20 11:00:00,36.5,30.3,29.96,WNW,295,5.1,10.4,78,0.00,CLR,,0.00,624.0,WeatherDisplay:10.37,2013-02-20 10:00:00,
2013-02-20 11:05:00,37.2,30.7,29.96,NNW,338,7.1,11.5,77,0.00,CLR,,0.00,624.0,WeatherDisplay:10.37,2013-02-20 10:05:00,
2013-02-20 11:10:00,37.8,31.2,29.96,WSW,258,5.3,10.0,77,0.00,CLR,,0.00,584.0,WeatherDisplay:10.37,2013-02-20 10:10:00,
2013-02-20 11:15:00,38.1,30.9,29.96,SW,236,3.7,11.5,75,0.00,CLR,,0.00,589.0,WeatherDisplay:10.37,2013-02-20 10:15:00,
2013-02-20 11:20:00,38.5,30.9,29.96,NW,322,8.4,12.0,74,0.00,CLR,,0.00,480.0,WeatherDisplay:10.37,2013-02-20 10:20:00,
2013-02-20 11:25:00,38.4,30.2,29.96,NNW,346,6.6,11.5,72,0.00,CLR,,0.00,508.0,WeatherDisplay:10.37,2013-02-20 10:25:00,
2013-02-20 11:30:00,38.2,30.0,29.96,NNW,331,4.5,8.1,72,0.00,CLR,,0.00,489.0,WeatherDisplay:10.37,2013-02-20 10:30:00,
2013-02-20 11:35:00,38.3,29.7,29.96,NW,315,3.1,11.5,71,0.00,CLR,,0.00,512.0,WeatherDisplay:10.37,2013-02-20 10:35:00,
2013-02-20 11:40:00,38.3,29.4,29.96,NW,315,6.3,11.5,70,0.00,CLR,,0.00,199.0,WeatherDisplay:10.37,2013-02-20 10:40:00,
2013-02-20 11:45:00,38.0,29.1,29.96,WNW,285,6.2,13.0,70,0.00,FEW,,0.00,420.0,WeatherDisplay:10.37,2013-02-20 10:45:00,
2013-02-20 11:50:00,38.3,28.7,29.96,NW,312,8.9,12.0,68,0.00,CLR,,0.00,545.0,WeatherDisplay:10.37,2013-02-20 10:50:00,
2013-02-20 11:55:00,38.5,28.5,29.96,WSW,245,5.3,10.4,67,0.00,CLR,,0.00,529.0,WeatherDisplay:10.37,2013-02-20 10:55:00,
2013-02-20 12:00:00,38.7,29.0,29.96,West,263,7.2,13.8,68,0.00,CLR,,0.00,564.0,WeatherDisplay:10.37,2013-02-20 11:00:00,
2013-02-20 12:05:00,38.4,28.4,29.96,West,280,5.0,10.4,67,0.00,CLR,,0.00,153.0,WeatherDisplay:10.37,2013-02-20 11:05:00,
2013-02-20 12:10:00,38.3,29.0,29.96,NW,305,3.3,9.2,69,0.00,SCT,,0.00,84.0,WeatherDisplay:10.37,2013-02-20 11:10:00,
2013-02-20 12:15:00,38.3,29.0,29.95,NNW,333,6.3,13.0,69,0.00,SCT,,0.00,429.0,WeatherDisplay:10.37,2013-02-20 11:15:00,
2013-02-20 12:20:00,38.2,28.2,29.96,WNW,303,8.4,16.1,67,0.00,SCT,,0.00,76.0,WeatherDisplay:10.37,2013-02-20 11:20:00,
2013-02-20 12:25:00,37.9,27.9,29.96,WNW,296,9.5,13.0,67,0.00,SCT,,0.00,471.0,WeatherDisplay:10.37,2013-02-20 11:25:00,
2013-02-20 12:30:00,38.0,28.4,29.96,NW,315,8.4,15.0,68,0.00,FEW,,0.00,471.0,WeatherDisplay:10.37,2013-02-20 11:30:00,
2013-02-20 12:35:00,38.1,28.1,29.96,NW,320,5.7,15.0,67,0.00,CLR,,0.00,485.0,WeatherDisplay:10.37,2013-02-20 11:35:00,
2013-02-20 12:40:00,38.1,28.5,29.96,NW,306,9.2,14.0,68,0.00,CLR,,0.00,445.0,WeatherDisplay:10.37,2013-02-20 11:40:00,
2013-02-20 12:45:00,38.3,28.7,29.96,WNW,294,5.9,12.7,68,0.00,CLR,,0.00,462.0,WeatherDisplay:10.37,2013-02-20 11:45:00,
2013-02-20 12:50:00,38.3,28.7,29.96,NNW,329,7.0,12.7,68,0.00,CLR,,0.00,457.0,WeatherDisplay:10.37,2013-02-20 11:50:00,
2013-02-20 12:55:00,38.3,28.3,29.96,NW,317,6.5,11.0,67,0.00,CLR,,0.00,450.0,WeatherDisplay:10.37,2013-02-20 11:55:00,
2013-02-20 13:00:00,38.2,27.8,29.96,West,279,9.5,15.0,66,0.00,CLR,,0.00,443.0,WeatherDisplay:10.37,2013-02-20 12:00:00,
2013-02-20 13:05:00,37.9,27.5,29.97,NW,308,7.2,12.7,66,0.00,CLR,,0.00,244.0,WeatherDisplay:10.37,2013-02-20 12:05:00,
2013-02-20 13:10:00,37.7,27.7,29.97,WNW,296,6.9,12.0,67,0.00,SCT,,0.00,95.0,WeatherDisplay:10.37,2013-02-20 12:10:00,
2013-02-20 13:15:00,37.5,27.9,29.97,WNW,299,6.3,8.1,68,0.00,BKN,,0.00,533.0,WeatherDisplay:10.37,2013-02-20 12:15:00,
2013-02-20 13:20:00,37.8,27.8,29.96,NNW,329,6.9,11.5,67,0.00,FEW,,0.00,499.0,WeatherDisplay:10.37,2013-02-20 12:20:00,
2013-02-20 13:25:00,38.3,28.3,29.96,NNW,336,5.9,11.5,67,0.00,CLR,,0.00,158.0,WeatherDisplay:10.37,2013-02-20 12:25:00,
2013-02-20 13:30:00,38.3,28.7,29.96,North,355,6.2,9.2,68,0.00,FEW,,0.00,494.0,WeatherDisplay:10.37,2013-02-20 12:30:00,
2013-02-20 13:35:00,38.3,28.7,29.96,North,355,7.6,11.5,68,0.00,CLR,,0.00,134.0,WeatherDisplay:10.37,2013-02-20 12:35:00,
2013-02-20 13:40:00,38.1,28.1,29.97,West,265,6.7,12.0,67,0.00,CLR,,0.00,127.0,WeatherDisplay:10.37,2013-02-20 12:40:00,
2013-02-20 13:45:00,37.8,27.8,29.97,WNW,286,5.6,11.5,67,0.00,SCT,,0.00,137.0,WeatherDisplay:10.37,2013-02-20 12:45:00,
2013-02-20 13:50:00,37.6,27.3,29.97,WNW,288,5.9,10.4,66,0.00,SCT,,0.00,139.0,WeatherDisplay:10.37,2013-02-20 12:50:00,
2013-02-20 13:55:00,37.5,27.5,29.97,North,355,4.8,10.4,67,0.00,BKN,,0.00,128.0,WeatherDisplay:10.37,2013-02-20 12:55:00,
2013-02-20 14:00:00,37.4,27.4,29.97,West,275,1.7,6.9,67,0.00,BKN,,0.00,111.0,WeatherDisplay:10.37,2013-02-20 13:00:00,
2013-02-20 14:05:00,37.4,27.4,29.97,NW,323,5.9,8.1,67,0.00,BKN,,0.00,104.0,WeatherDisplay:10.37,2013-02-20 13:05:00,
2013-02-20 14:10:00,37.3,27.3,29.97,WNW,296,3.8,6.0,67,0.00,BKN,,0.00,100.0,WeatherDisplay:10.37,2013-02-20 13:10:00,
2013-02-20 14:15:00,37.3,27.3,29.97,NW,304,3.5,12.0,67,0.00,BKN,,0.00,160.0,WeatherDisplay:10.37,2013-02-20 13:15:00,
2013-02-20 14:20:00,37.3,27.3,29.97,West,277,6.3,13.0,67,0.00,SCT,,0.00,160.0,WeatherDisplay:10.37,2013-02-20 13:20:00,
2013-02-20 14:25:00,37.4,27.1,29.97,NW,312,7.1,10.4,66,0.00,SCT,,0.00,142.0,WeatherDisplay:10.37,2013-02-20 13:25:00,
2013-02-20 14:30:00,37.5,27.2,29.97,WNW,293,5.8,10.4,66,0.00,SCT,,0.00,88.0,WeatherDisplay:10.37,2013-02-20 13:30:00,
2013-02-20 14:35:00,37.4,27.1,29.97,North,360,4.3,10.4,66,0.00,BKN,,0.00,83.0,WeatherDisplay:10.37,2013-02-20 13:35:00,
2013-02-20 14:40:00,37.2,26.9,29.97,West,280,6.2,10.0,66,0.00,BKN,,0.00,174.0,WeatherDisplay:10.37,2013-02-20 13:40:00,
2013-02-20 14:45:00,37.1,27.2,29.97,NW,306,4.2,11.5,67,0.00,BKN,,0.00,74.0,WeatherDisplay:10.37,2013-02-20 13:45:00,
2013-02-20 14:50:00,37.0,27.1,29.97,West,279,7.1,11.5,67,0.00,SCT,,0.00,90.0,WeatherDisplay:10.37,2013-02-20 13:50:00,
2013-02-20 14:55:00,36.9,27.0,29.97,WNW,285,4.7,8.1,67,0.00,SCT,,0.00,139.0,WeatherDisplay:10.37,2013-02-20 13:55:00,
2013-02-20 15:00:00,37.0,27.4,29.97,NNW,328,3.1,8.1,68,0.00,SCT,,0.00,107.0,WeatherDisplay:10.37,2013-02-20 14:00:00,
2013-02-20 15:05:00,37.0,27.1,29.97,NW,321,1.7,8.1,67,0.00,SCT,,0.00,146.0,WeatherDisplay:10.37,2013-02-20 14:05:00,
2013-02-20 15:10:00,37.2,27.2,29.97,NNW,327,4.4,9.2,67,0.00,SCT,,0.00,113.0,WeatherDisplay:10.37,2013-02-20 14:10:00,
2013-02-20 15:15:00,37.2,27.2,29.97,WNW,302,3.6,7.0,67,0.00,SCT,,0.00,90.0,WeatherDisplay:10.37,2013-02-20 14:15:00,
2013-02-20 15:20:00,37.2,27.2,29.97,NW,324,4.9,9.2,67,0.00,SCT,,0.00,70.0,WeatherDisplay:10.37,2013-02-20 14:20:00,
2013-02-20 15:25:00,37.1,27.2,29.97,WNW,292,2.2,6.9,67,0.00,BKN,,0.00,54.0,WeatherDisplay:10.37,2013-02-20 14:25:00,
2013-02-20 15:30:00,37.0,27.1,29.97,West,279,5.5,10.4,67,0.00,BKN,,0.00,60.0,WeatherDisplay:10.37,2013-02-20 14:30:00,
2013-02-20 15:35:00,36.9,27.0,29.97,NW,316,3.0,8.1,67,0.00,BKN,,0.00,69.0,WeatherDisplay:10.37,2013-02-20 14:35:00,
2013-02-20 15:40:00,36.9,27.0,29.97,NNW,331,3.3,9.2,67,0.00,BKN,,0.00,53.0,WeatherDisplay:10.37,2013-02-20 14:40:00,
2013-02-20 15:45:00,36.8,26.9,29.98,West,281,5.5,11.5,67,0.00,BKN,,0.00,47.0,WeatherDisplay:10.37,2013-02-20 14:45:00,
2013-02-20 15:50:00,36.7,26.8,29.98,NW,325,6.0,9.2,67,0.00,BKN,,0.00,53.0,WeatherDisplay:10.37,2013-02-20 14:50:00,
2013-02-20 15:55:00,36.6,26.7,29.97,WNW,285,4.4,9.2,67,0.00,BKN,,0.00,65.0,WeatherDisplay:10.37,2013-02-20 14:55:00,
2013-02-20 16:00:00,36.5,26.9,29.97,NW,306,4.3,9.2,68,0.00,SCT,,0.00,58.0,WeatherDisplay:10.37,2013-02-20 15:00:00,
2013-02-20 16:05:00,36.3,26.7,29.98,West,277,4.9,7.0,68,0.00,SCT,,0.00,49.0,WeatherDisplay:10.37,2013-02-20 15:05:00,
2013-02-20 16:10:00,36.3,27.1,29.98,WNW,302,2.7,5.0,69,0.00,SCT,,0.00,47.0,WeatherDisplay:10.37,2013-02-20 15:10:00,
2013-02-20 16:15:00,36.2,27.0,29.98,WNW,292,1.4,4.0,69,0.00,CLR,,0.00,86.0,WeatherDisplay:10.37,2013-02-20 15:15:00,
2013-02-20 16:20:00,36.2,27.4,29.98,WNW,288,1.8,6.9,70,0.00,CLR,,0.00,76.0,WeatherDisplay:10.37,2013-02-20 15:20:00,
2013-02-20 16:25:00,36.2,27.4,29.98,NW,322,5.9,9.2,70,0.00,CLR,,0.00,83.0,WeatherDisplay:10.37,2013-02-20 15:25:00,
2013-02-20 16:30:00,36.2,27.4,29.98,West,277,2.7,5.8,70,0.00,CLR,,0.00,53.0,WeatherDisplay:10.37,2013-02-20 15:30:00,
2013-02-20 16:35:00,36.1,27.3,29.98,West,274,3.9,10.4,70,0.00,CLR,,0.00,54.0,WeatherDisplay:10.37,2013-02-20 15:35:00,
2013-02-20 16:40:00,36.0,27.2,29.98,West,274,1.7,4.6,70,0.00,CLR,,0.00,67.0,WeatherDisplay:10.37,2013-02-20 15:40:00,
2013-02-20 16:45:00,36.0,27.5,29.98,WNW,290,3.8,9.0,71,0.00,CLR,,0.00,70.0,WeatherDisplay:10.37,2013-02-20 15:45:00,
2013-02-20 16:50:00,36.0,27.5,29.98,WNW,297,3.3,6.0,71,0.00,CLR,,0.00,69.0,WeatherDisplay:10.37,2013-02-20 15:50:00,
2013-02-20 16:55:00,36.1,27.6,29.99,WNW,292,2.9,6.9,71,0.00,CLR,,0.00,51.0,WeatherDisplay:10.37,2013-02-20 15:55:00,
2013-02-20 17:00:00,36.0,27.5,29.99,WNW,302,3.3,4.6,71,0.00,CLR,,0.00,25.0,WeatherDisplay:10.37,2013-02-20 16:00:00,
2013-02-20 17:05:00,36.0,27.2,29.99,West,275,2.9,8.1,70,0.00,CLR,,0.00,26.0,WeatherDisplay:10.37,2013-02-20 16:05:00,
2013-02-20 17:10:00,35.8,27.3,29.99,NW,309,2.9,7.0,71,0.00,CLR,,0.00,16.0,WeatherDisplay:10.37,2013-02-20 16:10:00,
2013-02-20 17:15:00,35.7,27.2,30.00,West,277,4.8,9.2,71,0.00,CLR,,0.00,0.0,WeatherDisplay:10.37,2013-02-20 16:15:00,
2013-02-20 17:20:00,35.6,27.1,30.00,West,265,3.2,5.8,71,0.00,CLR,,0.00,0.0,WeatherDisplay:10.37,2013-02-20 16:20:00,
2013-02-20 17:25:00,35.3,27.2,30.00,WNW,297,3.2,9.2,72,0.00,CLR,,0.00,0.0,WeatherDisplay:10.37,2013-02-20 16:25:00,
2013-02-20 17:30:00,35.1,27.0,30.00,West,272,3.9,5.8,72,0.00,CLR,,0.00,0.0,WeatherDisplay:10.37,2013-02-20 16:30:00,
2013-02-20 17:35:00,34.8,27.0,30.00,WNW,284,2.9,5.0,73,0.00,CLR,,0.00,0.0,WeatherDisplay:10.37,2013-02-20 16:35:00,
2013-02-20 17:40:00,34.5,26.7,30.00,WNW,297,3.4,5.0,73,0.00,CLR,,0.00,0.0,WeatherDisplay:10.37,2013-02-20 16:40:00,
2013-02-20 17:45:00,34.2,26.8,30.00,WNW,286,3.0,5.0,74,0.00,CLR,,0.00,0.0,WeatherDisplay:10.37,2013-02-20 16:45:00,
2013-02-20 17:50:00,34.0,26.9,30.01,West,277,4.2,8.1,75,0.00,CLR,,0.00,0.0,WeatherDisplay:10.37,2013-02-20 16:50:00,
2013-02-20 17:55:00,33.8,26.7,30.01,West,269,4.4,6.9,75,0.00,CLR,,0.00,0.0,WeatherDisplay:10.37,2013-02-20 16:55:00,
2013-02-20 18:00:00,33.6,26.5,30.01,WSW,241,3.0,5.0,75,0.00,CLR,,0.00,0.0,WeatherDisplay:10.37,2013-02-20 17:00:00,
2013-02-20 18:05:00,33.5,26.7,30.01,WSW,255,1.6,4.6,76,0.00,CLR,,0.00,0.0,WeatherDisplay:10.37,2013-02-20 17:05:00,
2013-02-20 18:10:00,33.3,26.5,30.01,WNW,288,2.0,6.0,76,0.00,CLR,,0.00,0.0,WeatherDisplay:10.37,2013-02-20 17:10:00,
2013-02-20 18:15:00,33.1,26.7,30.01,WSW,254,3.8,6.0,77,0.00,CLR,,0.00,0.0,WeatherDisplay:10.37,2013-02-20 17:15:00,
2013-02-20 18:20:00,32.9,26.5,30.01,WSW,247,0.9,3.5,77,0.00,CLR,,0.00,0.0,WeatherDisplay:10.37,2013-02-20 17:20:00,
2013-02-20 18:25:00,32.7,26.6,30.01,West,270,0.9,4.6,78,0.00,CLR,,0.00,0.0,WeatherDisplay:10.37,2013-02-20 17:25:00,
2013-02-20 18:30:00,32.5,26.7,30.01,WSW,250,0.9,3.0,79,0.00,CLR,,0.00,0.0,WeatherDisplay:10.37,2013-02-20 17:30:00,
2013-02-20 18:35:00,32.4,26.6,30.01,WNW,291,0.1,3.5,79,0.00,CLR,,0.00,0.0,WeatherDisplay:10.37,2013-02-20 17:35:00,
2013-02-20 18:40:00,32.2,26.7,30.01,West,281,0.6,3.5,80,0.00,CLR,,0.00,0.0,WeatherDisplay:10.37,2013-02-20 17:40:00,
2013-02-20 18:45:00,32.0,26.5,30.02,WNW,286,1.0,5.8,80,0.00,CLR,,0.00,0.0,WeatherDisplay:10.37,2013-02-20 17:45:00,
2013-02-20 18:50:00,31.9,26.7,30.02,WNW,288,1.0,2.3,81,0.00,CLR,,0.00,0.0,WeatherDisplay:10.37,2013-02-20 17:50:00,
2013-02-20 18:55:00,31.8,26.6,30.02,WNW,288,0.2,2.3,81,0.00,CLR,,0.00,0.0,WeatherDisplay:10.37,2013-02-20 17:55:00,
2013-02-20 19:00:00,31.7,26.5,30.02,WNW,288,0.5,3.5,81,0.00,CLR,,0.00,0.0,WeatherDisplay:10.37,2013-02-20 18:00:00,
2013-02-20 19:05:00,31.7,26.5,30.02,WNW,288,0.2,1.0,81,0.00,CLR,,0.00,0.0,WeatherDisplay:10.37,2013-02-20 18:05:00,
2013-02-20 19:10:00,31.6,26.4,30.02,WNW,290,1.0,3.5,81,0.00,CLR,,0.00,0.0,WeatherDisplay:10.37,2013-02-20 18:10:00,
2013-02-20 19:15:00,31.5,26.3,30.02,WNW,290,0.2,2.3,81,0.00,CLR,,0.00,0.0,WeatherDisplay:10.37,2013-02-20 18:15:00,
2013-02-20 19:20:00,31.5,26.3,30.02,West,261,3.0,7.0,81,0.00,CLR,,0.00,0.0,WeatherDisplay:10.37,2013-02-20 18:20:00,
2013-02-20 19:25:00,31.6,26.4,30.02,North,360,2.6,4.6,81,0.00,CLR,,0.00,0.0,WeatherDisplay:10.37,2013-02-20 18:25:00,
2013-02-20 19:30:00,31.7,26.5,30.02,WNW,300,1.3,4.0,81,0.00,CLR,,0.00,0.0,WeatherDisplay:10.37,2013-02-20 18:30:00,
2013-02-20 19:35:00,31.7,26.5,30.02,WNW,303,1.3,3.5,81,0.00,CLR,,0.00,0.0,WeatherDisplay:10.37,2013-02-20 18:35:00,
2013-02-20 19:40:00,31.8,26.6,30.03,WNW,300,0.4,3.5,81,0.00,CLR,,0.00,0.0,WeatherDisplay:10.37,2013-02-20 18:40:00,
2013-02-20 19:45:00,31.8,26.6,30.03,WNW,300,0.4,2.3,81,0.00,CLR,,0.00,0.0,WeatherDisplay:10.37,2013-02-20 18:45:00,
2013-02-20 19:50:00,31.8,26.6,30.03,WNW,300,0.0,0.0,81,0.00,CLR,,0.00,0.0,WeatherDisplay:10.37,2013-02-20 18:50:00,
2013-02-20 19:55:00,31.7,26.2,30.02,NW,311,1.7,3.0,80,0.00,CLR,,0.00,0.0,WeatherDisplay:10.37,2013-02-20 18:55:00,
2013-02-20 20:00:00,31.6,26.4,30.03,NW,311,0.4,2.0,81,0.00,CLR,,0.00,0.0,WeatherDisplay:10.37,2013-02-20 19:00:00,
2013-02-20 20:05:00,31.5,26.3,30.03,NW,311,0.0,1.1,81,0.00,CLR,,0.00,0.0,WeatherDisplay:10.37,2013-02-20 19:05:00,
2013-02-20 20:10:00,31.4,26.2,30.03,NW,311,0.0,0.0,81,0.00,CLR,,0.00,0.0,WeatherDisplay:10.37,2013-02-20 19:10:00,
2013-02-20 20:15:00,31.3,26.1,30.03,NW,311,0.1,1.1,81,0.00,CLR,,0.00,0.0,WeatherDisplay:10.37,2013-02-20 19:15:00,
2013-02-20 20:20:00,31.2,26.0,30.03,NW,311,0.0,0.0,81,0.00,CLR,,0.00,0.0,WeatherDisplay:10.37,2013-02-20 19:20:00,
2013-02-20 20:25:00,31.0,25.9,30.03,West,265,3.5,5.0,81,0.00,CLR,,0.00,0.0,WeatherDisplay:10.37,2013-02-20 19:25:00,
2013-02-20 20:30:00,30.9,26.1,30.03,West,267,1.2,4.0,82,0.00,CLR,,0.00,0.0,WeatherDisplay:10.37,2013-02-20 19:30:00,
2013-02-20 20:35:00,30.9,26.1,30.04,WSW,249,0.7,4.6,82,0.00,CLR,,0.00,0.0,WeatherDisplay:10.37,2013-02-20 19:35:00,
2013-02-20 20:40:00,30.9,26.1,30.04,WSW,255,1.3,3.5,82,0.00,CLR,,0.00,0.0,WeatherDisplay:10.37,2013-02-20 19:40:00,
2013-02-20 20:45:00,31.0,25.9,30.04,WSW,255,0.0,1.1,81,0.00,CLR,,0.00,0.0,WeatherDisplay:10.37,2013-02-20 19:45:00,
2013-02-20 20:50:00,30.9,25.8,30.04,WSW,255,0.4,2.3,81,0.00,CLR,,0.00,0.0,WeatherDisplay:10.37,2013-02-20 19:50:00,
2013-02-20 20:55:00,30.7,25.6,30.04,WSW,255,0.2,1.0,81,0.00,CLR,,0.00,0.0,WeatherDisplay:10.37,2013-02-20 19:55:00,
2013-02-20 21:00:00,30.5,25.4,30.04,West,267,0.2,2.3,81,0.00,CLR,,0.00,0.0,WeatherDisplay:10.37,2013-02-20 20:00:00,
2013-02-20 21:05:00,30.4,25.3,30.04,WNW,296,1.3,4.0,81,0.00,CLR,,0.00,0.0,WeatherDisplay:10.37,2013-02-20 20:05:00,
2013-02-20 21:10:00,30.2,25.4,30.04,NW,309,0.3,4.6,82,0.00,CLR,,0.00,0.0,WeatherDisplay:10.37,2013-02-20 20:10:00,
2013-02-20 21:15:00,30.2,25.7,30.04,NW,311,0.6,2.3,83,0.00,CLR,,0.00,0.0,WeatherDisplay:10.37,2013-02-20 20:15:00,
2013-02-20 21:20:00,30.2,25.7,30.04,NW,313,0.4,3.5,83,0.00,CLR,,0.00,0.0,WeatherDisplay:10.37,2013-02-20 20:20:00,
2013-02-20 21:25:00,30.2,25.9,30.05,NW,314,0.4,3.5,84,0.00,CLR,,0.00,0.0,WeatherDisplay:10.37,2013-02-20 20:25:00,
2013-02-20 21:30:00,30.1,25.6,30.05,NW,315,0.5,3.0,83,0.00,CLR,,0.00,0.0,WeatherDisplay:10.37,2013-02-20 20:30:00,
2013-02-20 21:35:00,30.1,25.8,30.05,NW,315,0.3,1.1,84,0.00,CLR,,0.00,0.0,WeatherDisplay:10.37,2013-02-20 20:35:00,
2013-02-20 21:40:00,30.0,25.8,30.05,NW,315,0.0,1.1,84,0.00,CLR,,0.00,0.0,WeatherDisplay:10.37,2013-02-20 20:40:00,
2013-02-20 21:45:00,29.9,25.7,30.05,NW,315,0.1,3.5,84,0.00,CLR,,0.00,0.0,WeatherDisplay:10.37,2013-02-20 20:45:00,
2013-02-20 21:50:00,29.7,25.5,30.05,NW,315,0.0,0.0,84,0.00,CLR,,0.00,0.0,WeatherDisplay:10.37,2013-02-20 20:50:00,
2013-02-20 21:55:00,29.6,25.4,30.05,NW,315,0.2,2.3,84,0.00,CLR,,0.00,0.0,WeatherDisplay:10.37,2013-02-20 20:55:00,
2013-02-20 22:00:00,29.4,25.2,30.05,NW,315,0.1,2.3,84,0.00,CLR,,0.00,0.0,WeatherDisplay:10.37,2013-02-20 21:00:00,
2013-02-20 22:05:00,29.2,25.0,30.05,NW,315,0.6,1.1,84,0.00,CLR,,0.00,0.0,WeatherDisplay:10.37,2013-02-20 21:05:00,
2013-02-20 22:10:00,29.1,25.2,30.05,NW,315,0.0,1.1,85,0.00,CLR,,0.00,0.0,WeatherDisplay:10.37,2013-02-20 21:10:00,
2013-02-20 22:15:00,28.9,25.0,30.05,NW,315,0.0,0.0,85,0.00,CLR,,0.00,0.0,WeatherDisplay:10.37,2013-02-20 21:15:00,
2013-02-20 22:20:00,28.7,24.8,30.05,NW,315,0.0,0.0,85,0.00,CLR,,0.00,0.0,WeatherDisplay:10.37,2013-02-20 21:20:00,
2013-02-20 22:25:00,28.5,24.6,30.06,North,360,0.0,0.0,85,0.00,CLR,,0.00,0.0,WeatherDisplay:10.37,2013-02-20 21:25:00,
2013-02-20 22:30:00,28.3,24.4,30.06,NW,315,0.0,0.0,85,0.00,CLR,,0.00,0.0,WeatherDisplay:10.37,2013-02-20 21:30:00,
2013-02-20 22:35:00,28.0,24.1,30.06,NW,315,0.0,0.0,85,0.00,CLR,,0.00,0.0,WeatherDisplay:10.37,2013-02-20 21:35:00,
2013-02-20 22:40:00,27.8,24.2,30.06,NW,315,0.0,0.0,86,0.00,CLR,,0.00,0.0,WeatherDisplay:10.37,2013-02-20 21:40:00,
2013-02-20 22:45:00,27.5,23.9,30.06,North,360,0.0,0.0,86,0.00,CLR,,0.00,0.0,WeatherDisplay:10.37,2013-02-20 21:45:00,
2013-02-20 22:50:00,27.3,23.7,30.06,NW,315,0.0,0.0,86,0.00,CLR,,0.00,0.0,WeatherDisplay:10.37,2013-02-20 21:50:00,
2013-02-20 22:55:00,27.1,23.5,30.06,NW,315,0.0,0.0,86,0.00,CLR,,0.00,0.0,WeatherDisplay:10.37,2013-02-20 21:55:00,
2013-02-20 23:00:00,27.0,23.6,30.05,NW,315,0.0,1.1,87,0.00,CLR,,0.00,0.0,WeatherDisplay:10.37,2013-02-20 22:00:00,
2013-02-20 23:05:00,26.9,23.8,30.05,NW,315,1.6,3.0,88,0.00,CLR,,0.00,0.0,WeatherDisplay:10.37,2013-02-20 22:05:00,
2013-02-20 23:10:00,26.9,23.8,30.06,NW,315,0.0,1.1,88,0.00,CLR,,0.00,0.0,WeatherDisplay:10.37,2013-02-20 22:10:00,
2013-02-20 23:16:00,27.0,23.9,30.05,NW,315,0.0,2.3,88,0.00,CLR,,0.00,0.0,WeatherDisplay:10.37,2013-02-20 22:16:00,
2013-02-20 23:21:00,27.0,23.9,30.05,NW,315,0.0,0.0,88,0.00,CLR,,0.00,0.0,WeatherDisplay:10.37,2013-02-20 22:21:00,
2013-02-20 23:26:00,27.0,24.2,30.05,NW,315,0.0,1.1,89,0.00,CLR,,0.00,0.0,WeatherDisplay:10.37,2013-02-20 22:26:00,
2013-02-20 23:31:00,27.1,24.3,30.05,NW,315,1.4,3.5,89,0.00,CLR,,0.00,0.0,WeatherDisplay:10.37,2013-02-20 22:31:00,
2013-02-20 23:36:00,27.1,24.3,30.05,NW,315,0.0,1.1,89,0.00,CLR,,0.00,0.0,WeatherDisplay:10.37,2013-02-20 22:36:00,
2013-02-20 23:41:00,27.3,24.5,30.05,NW,315,0.0,1.1,89,0.00,CLR,,0.00,0.0,WeatherDisplay:10.37,2013-02-20 22:41:00,
2013-02-20 23:46:00,27.3,24.5,30.06,North,360,0.3,1.1,89,0.00,CLR,,0.00,0.0,WeatherDisplay:10.37,2013-02-20 22:46:00,
2013-02-20 23:51:00,27.3,24.5,30.06,NW,315,0.0,1.1,89,0.00,CLR,,0.00,0.0,WeatherDisplay:10.37,2013-02-20 22:51:00,
2013-02-20 23:56:00,27.3,24.5,30.06,NW,315,0.0,2.3,89,0.00,CLR,,0.00,0.0,WeatherDisplay:10.37,2013-02-20 22:56:00,